User: anonymous
Location: Caltech
(34.1382°N, 118.1253°W)
Time: 19:15:29
(UTC-07:00)
Language:

Cosmos 1408 Rocket - Orbit

View from above orbital plane
View from above orbital plane
View from above satellite
View from above satellite

Ground track
Ground track

The orbit data is extracted from the following two-line orbital elements,

1 13553U 82092B   14245.70475372  .00000289  00000-0  31989-4 0  9925
2 13553 082.5666 102.7328 0022429 166.0903 258.8328 14.83574695725999
Epoch (UTC): 02 September 2014 16:54:50
Eccentricity: 0.0022429
inclination: 82.5666°
perigee height: 602 km
apogee height: 634 km
right ascension of ascending node: 102.7328°
argument of perigee: 166.0903°
revolutions per day: 14.83574695
mean anomaly at epoch: 258.8328°
orbit number at epoch: 72599

The dashed part of the orbit path shows where the satellite is in the earth's shadow,  

DLR